Location: Unspecified
(49.8670°N, 0.0000°E)
Time: 18:54:29
(UTC+00:00)

Vanguard 1 - Pass Details

Date: 22 June 2019
Orbit: 653 x 3830 km, 34.3° (Epoch: 20 July)

Event Time Altitude Azimuth Distance (km) Brightness Sun altitude
Rises 01:01:56 0° 207° (SSW) 7,823 - -15.5°
Reaches altitude 10° 01:09:21 10° 196° (SSW) 6,483 - -15.2°
Exits shadow 01:13:56 16° 185° (S) 5,683 13.3 -15.0°
Maximum altitude 01:22:29 23° 154° (SSE) 4,526 13.0 -14.5°
Drops below altitude 10° 01:31:54 10° 109° (ESE) 4,554 13.5 -14.0°
Sets 01:35:48 0° 95° (E) 5,094 14.0 -13.8°
